User: anonymous
Location: Plum
(40.5000°N, 79.7500°W)
Time: 07:43:00
(UTC-04:00)
Language:

MOZ.5/SAFIR/RUBIN 5/SL-8 - Orbit

View from above orbital plane
View from above orbital plane
View from above satellite
View from above satellite

Ground track
Ground track

The orbit data is extracted from the following two-line orbital elements,

1 28898U 05043G   14113.51425859  .00000695  00000-0  15547-3 0  7966
2 28898 097.8379 306.1202 0019854 204.0408 182.7024 14.59430055451953
Epoch (UTC): 23 April 2014 12:20:31
Eccentricity: 0.0019854
inclination: 97.8379°
perigee height: 681 km
apogee height: 709 km
right ascension of ascending node: 306.1202°
argument of perigee: 204.0408°
revolutions per day: 14.59430055
mean anomaly at epoch: 182.7024°
orbit number at epoch: 45195

The dashed part of the orbit path shows where the satellite is in the earth's shadow,  

DLR